Regional Weather Roundup
Issued by NWS

Home | Current Version | Previous Version | Graphics & Text | Print | Product List | Glossary On
Versions: 1 2 3 4 5 6 7 8 9 10 11 12 13 14 15 16 17 18 19 20 21 22 23 24 25 26 27 28 29 30 31 32 33 34 35 36 37 38 39 40 41 42 43 44 45 46 47
000
ASUS45 KSLC 260110
RWRUT

UTAH REGIONAL WEATHER ROUNDUP
NATIONAL WEATHER SERVICE SALT LAKE CITY UT
700 PM MDT FRI JUL 25 2014

UTZ001>011-023>025-260200-

NORTHERN UTAH

CITY           SKY/WX    TMP DP  RH WIND       PRES   REMARKS
HILL AFB         N/A     89  38  16 N9        29.99F
LOGAN          SUNNY     90  33  13 CALM      29.97F
OGDEN          SUNNY     91  34  13 N10       29.95F
PROVO AIRPORT  PTSUNNY   86  54  32 NE6       29.99R
SALT LAKE CITY PTSUNNY   91  36  14 N10       29.93F
VERNAL         MOSUNNY   93  38  14 W8        29.99S
WENDOVER       SUNNY     91  32  12 E9        29.93F
HEBER CITY     MOSUNNY   88  36  15 W7        30.03S
WEST JORDAN    SUNNY     91  50  24 NW12      29.98S

$$

UTZ012>022-026-027-260200-

SOUTHERN UTAH

CITY           SKY/WX    TMP DP  RH WIND       PRES   REMARKS
BRYCE CANYON   CLOUDY    72  46  39 W13       30.31S
CEDAR CITY     CLOUDY    84  47  27 S15G25    30.12F
MILFORD        MOSUNNY   91  46  21 SW29G37   30.03S
MOAB/CYNLANDS  SUNNY     93  41  16 W21       29.98F
PRICE          PTSUNNY   86  43  22 SE21G31   30.10F
ST GEORGE      PTCLDY    93  48  21 N5        29.93F HX  90
KANAB            N/A     84  52  32 W10       30.14S

$$

REGIONAL REPORTS     COLORADO/ARIZONA

CITY           SKY/WX    TMP DP  RH WIND       PRES   REMARKS
CRAIG, CO      CLOUDY    72  50  45 NE12      30.16R
GRAND JUNCTION MOSUNNY   83  54  36 E6        30.03F
RIFLE          CLOUDY    81  48  31 SE9       30.12F
MONTROSE         N/A     81  52  36 W6        30.15F
CORTEZ         SUNNY     90  42  18 W6        30.11F
PAGE, AZ       PTSUNNY   94  46  19 S3        30.01F HX  90
GRAND CANYON   MOSUNNY   80  45  28 W8G18     30.27R
KINGMAN        PTSUNNY   97  52  21 SW14G24   29.97S THUNDER HX  94
FLAGSTAFF      MOSUNNY   77  46  33 NW8G24    30.28R

$$

REGIONAL REPORTS    NEVADA/IDAHO/WYOMING

CITY           SKY/WX    TMP DP  RH WIND       PRES   REMARKS
LAS VEGAS, NV  PTSUNNY  103  47  15 S12       29.78F HX  99
ELY            SUNNY     91  14   6 SW13G28   30.07F
ELKO           PTSUNNY   91  15   6 W12       30.00F
POCATELLO, ID  SUNNY     84  26  12 SW13      30.03F
BURLEY         SUNNY     80  37  21 W9        30.01F
EVANSTON, WY   SUNNY     82  34  17 W12G22    30.18F
ROCK SPRINGS   SUNNY     86  25  11 W23G36    30.11F

$$



USA.gov is the U.S. government's official web portal to all federal, state and local government web resources and services.